Weather History for Stevensville, MD

Change the Weather History Date:

Wednesday, January 8, 2014

  Actual Average (KESN) Record (KESN)
Temperature  
Mean Temperature 22 °F -  
Max Temperature 28 °F 37 °F 61 °F (1949)
Min Temperature 15 °F 22 °F 10 °F (1970)
Degree Days  
Heating Degree Days 44    
Moisture  
Dew Point 4 °F    
Average Humidity 45    
Maximum Humidity 69    
Minimum Humidity 29    
Precipitation  
Precipitation 0.00 in - - ()
Sea Level Pressure  
Sea Level Pressure 30.54 in    
Wind  
Wind Speed 6 mph (SW)    
Max Wind Speed 12 mph    
Max Gust Speed 16 mph    
Visibility 10 miles    
Events      
Averages and records for this station are not official NWS values.
T = Trace of Precipitation, MM = Missing Value Source: NWS Daily Summary

Daily Weather History Graph

Daily Weather History Graph

Search for Another Location

Airport:

Trip Planner

Search our weather history database for the weather conditions in past years. The results will help you decide how hot, cold, wet, or windy it might be!

Date:

Astronomy

Jan. 08, 2014 Rise Set
Actual Time 7:24 AM EST 5:00 PM EST
Civil Twilight 6:54 AM EST 5:29 PM EST
Nautical Twilight 6:21 AM EST 6:02 PM EST
Astronomical Twilight 5:49 AM EST 6:35 PM EST
Moon 11:49 AM EST (1/8) 12:29 AM EST (1/8)
Length of Visible Light 10h 35m
Length of Day
9h 35m
First Quarter, 56% of the Moon is Illuminated
Jan 8
First Quarter
Jan 15
Full
Jan 24
Last Quarter
Jan 30
New
Feb 6
First Quarter

Hourly Weather History & Observations

Time (EST) Temp. Windchill Dew Point Humidity Pressure Visibility Wind Dir Wind Speed Gust Speed Precip Events Conditions
12:03 AM 15.8 °F 4.2 °F -5.8 °F 38% 30.47 in 10.0 mi NW 9.2 mph 16.1 mph N/A   Clear
12:23 AM 15.8 °F 4.2 °F -5.8 °F 38% 30.47 in 10.0 mi WNW 9.2 mph - N/A   Clear
12:43 AM 15.8 °F 2.7 °F -5.8 °F 38% 30.48 in 10.0 mi WNW 11.5 mph - N/A   Clear
1:03 AM 15.8 °F 5.1 °F -4.0 °F 41% 30.49 in 10.0 mi WNW 8.1 mph - N/A   Clear
1:23 AM 15.8 °F 5.1 °F -4.0 °F 41% 30.49 in 10.0 mi WNW 8.1 mph - N/A   Clear
1:43 AM 15.8 °F 4.2 °F -4.0 °F 41% 30.50 in 10.0 mi NW 9.2 mph - N/A   Clear
2:03 AM 15.8 °F 6.1 °F -4.0 °F 41% 30.51 in 10.0 mi NW 6.9 mph - N/A   Clear
2:23 AM 15.8 °F 7.2 °F -4.0 °F 41% 30.51 in 10.0 mi WNW 5.8 mph - N/A   Clear
2:43 AM 15.8 °F 8.6 °F -0.4 °F 49% 30.51 in 10.0 mi NW 4.6 mph - N/A   Clear
3:03 AM 17.6 °F 7.3 °F -4.0 °F 38% 30.52 in 10.0 mi NW 8.1 mph - N/A   Clear
3:23 AM 17.6 °F 9.3 °F -4.0 °F 38% 30.53 in 10.0 mi WNW 5.8 mph - N/A   Clear
3:43 AM 17.6 °F 9.3 °F -4.0 °F 38% 30.52 in 10.0 mi NW 5.8 mph - N/A   Clear
4:03 AM 15.8 °F 7.2 °F -5.8 °F 38% 30.52 in 10.0 mi NW 5.8 mph - N/A   Clear
4:23 AM 15.8 °F 6.1 °F -4.0 °F 41% 30.51 in 10.0 mi NW 6.9 mph - N/A   Clear
5:50 AM 17.6 °F 6.4 °F -0.4 °F 45% 30.54 in 10.0 mi NW 9.2 mph - N/A   Clear
6:28 AM 17.6 °F 7.3 °F -2.2 °F 42% 30.56 in 10.0 mi NW 8.1 mph - N/A   Clear
6:48 AM 17.6 °F 10.7 °F -0.4 °F 45% 30.57 in 10.0 mi NW 4.6 mph - N/A   Clear
7:08 AM 17.6 °F 12.3 °F 1.4 °F 49% 30.57 in 10.0 mi NNW 3.5 mph - N/A   Clear
7:28 AM 17.6 °F 12.3 °F -0.4 °F 45% 30.58 in 10.0 mi NW 3.5 mph - N/A   Clear
7:48 AM 19.4 °F 11.5 °F -0.4 °F 42% 30.59 in 10.0 mi NW 5.8 mph - N/A   Scattered Clouds
8:08 AM 19.4 °F 14.3 °F -4.0 °F 36% 30.59 in 10.0 mi NNW 3.5 mph - N/A   Scattered Clouds
8:28 AM 19.4 °F 14.3 °F -0.4 °F 42% 30.59 in 10.0 mi NNW 3.5 mph - N/A   Scattered Clouds
8:48 AM 21.2 °F 16.4 °F -0.4 °F 39% 30.60 in 10.0 mi NNE 3.5 mph - N/A   Scattered Clouds
9:08 AM 21.2 °F 16.4 °F -2.2 °F 36% 30.61 in 10.0 mi NNW 3.5 mph - N/A   Scattered Clouds
9:28 AM 21.2 °F 14.9 °F -4.0 °F 33% 30.62 in 10.0 mi NNW 4.6 mph - N/A   Clear
9:48 AM 21.2 °F 14.9 °F -2.2 °F 36% 30.64 in 10.0 mi West 4.6 mph - N/A   Clear
10:08 AM 21.2 °F 16.4 °F -4.0 °F 33% 30.63 in 10.0 mi West 3.5 mph - N/A   Clear
10:28 AM 23.0 °F 18.4 °F -2.2 °F 33% 30.62 in 10.0 mi WNW 3.5 mph - N/A   Clear
10:48 AM 23.0 °F - -2.2 °F 33% 30.62 in 10.0 mi Calm Calm - N/A   Clear
11:08 AM 23.0 °F 17.0 °F -0.4 °F 36% 30.61 in 10.0 mi WNW 4.6 mph - N/A   Clear
11:28 AM 23.0 °F - -2.2 °F 33% 30.60 in 10.0 mi Calm Calm - N/A   Clear
11:49 AM 23.0 °F 17.0 °F -2.2 °F 33% 30.58 in 10.0 mi West 4.6 mph - N/A   Clear
12:09 PM 24.8 °F 20.5 °F -2.2 °F 31% 30.56 in 10.0 mi SW 3.5 mph - N/A   Clear
12:29 PM 26.6 °F 20.0 °F -2.2 °F 29% 30.56 in 10.0 mi SSW 5.8 mph - N/A   Clear
12:49 PM 26.6 °F 22.6 °F -0.4 °F 31% 30.55 in 10.0 mi SSW 3.5 mph - N/A   Clear
1:09 PM 26.6 °F 22.6 °F -0.4 °F 31% 30.54 in 10.0 mi SSW 3.5 mph - N/A   Clear
1:29 PM 26.6 °F 20.0 °F -0.4 °F 31% 30.54 in 10.0 mi SSW 5.8 mph - N/A   Clear
1:49 PM 28.4 °F 23.3 °F -0.4 °F 29% 30.54 in 10.0 mi WSW 4.6 mph - N/A   Clear
2:09 PM 28.4 °F 22.2 °F -0.4 °F 29% 30.53 in 10.0 mi SW 5.8 mph - N/A   Clear
2:29 PM 28.4 °F 23.3 °F -0.4 °F 29% 30.53 in 10.0 mi South 4.6 mph - N/A   Clear
2:49 PM 28.4 °F 20.4 °F 3.2 °F 34% 30.53 in 10.0 mi SSE 8.1 mph - N/A   Clear
3:09 PM 26.6 °F 19.1 °F 1.4 °F 34% 30.53 in 10.0 mi SE 6.9 mph - N/A   Clear
3:29 PM 26.6 °F 21.2 °F 3.2 °F 37% 30.52 in 10.0 mi SE 4.6 mph - N/A   Clear
3:49 PM 28.4 °F 22.2 °F 5.0 °F 37% 30.52 in 10.0 mi SSE 5.8 mph - N/A   Clear
4:09 PM 28.4 °F 21.2 °F 5.0 °F 37% 30.52 in 10.0 mi SSE 6.9 mph - N/A   Clear
4:29 PM 26.6 °F 20.0 °F 5.0 °F 40% 30.52 in 10.0 mi SSE 5.8 mph - N/A   Clear
4:49 PM 26.6 °F 22.6 °F 8.6 °F 47% 30.53 in 10.0 mi SSE 3.5 mph - N/A   Clear
5:09 PM 26.6 °F - 8.6 °F 47% 30.53 in 10.0 mi Calm Calm - N/A   Clear
5:29 PM 26.6 °F 21.2 °F 10.4 °F 51% 30.54 in 10.0 mi South 4.6 mph - N/A   Clear
5:49 PM 26.6 °F 21.2 °F 12.2 °F 55% 30.54 in 10.0 mi South 4.6 mph - N/A   Clear
6:09 PM 26.6 °F 21.2 °F 12.2 °F 55% 30.54 in 10.0 mi South 4.6 mph - N/A   Clear
6:29 PM 26.6 °F 21.2 °F 14.0 °F 59% 30.54 in 10.0 mi South 4.6 mph - N/A   Clear
6:49 PM 26.6 °F 21.2 °F 15.8 °F 64% 30.54 in 10.0 mi SSE 4.6 mph - N/A   Clear
7:09 PM 28.4 °F 22.2 °F 17.6 °F 64% 30.55 in 10.0 mi SSE 5.8 mph - N/A   Clear
7:29 PM 26.6 °F 21.2 °F 17.6 °F 69% 30.54 in 10.0 mi SSE 4.6 mph - N/A   Clear
7:50 PM 26.6 °F 21.2 °F 17.6 °F 69% 30.54 in 10.0 mi SSE 4.6 mph - N/A   Clear
8:10 PM 26.6 °F 21.2 °F 17.6 °F 69% 30.55 in 10.0 mi SSE 4.6 mph - N/A   Clear
8:30 PM 26.6 °F 21.2 °F 17.6 °F 69% 30.54 in 10.0 mi SSE 4.6 mph - N/A   Clear
8:50 PM 26.6 °F 21.2 °F 17.6 °F 69% 30.54 in 10.0 mi SSE 4.6 mph - N/A   Clear
9:10 PM 26.6 °F 20.0 °F 17.6 °F 69% 30.54 in 10.0 mi SSE 5.8 mph - N/A   Clear
9:30 PM 28.4 °F 22.2 °F 17.6 °F 64% 30.54 in 10.0 mi SSE 5.8 mph - N/A   Clear
9:50 PM 28.4 °F 19.7 °F 17.6 °F 64% 30.54 in 10.0 mi SSE 9.2 mph - N/A   Clear
10:10 PM 28.4 °F 21.2 °F 17.6 °F 64% 30.54 in 10.0 mi SSE 6.9 mph - N/A   Clear
10:30 PM 28.4 °F 22.2 °F 17.6 °F 64% 30.53 in 10.0 mi SSE 5.8 mph - N/A   Clear
10:50 PM 28.4 °F 22.2 °F 17.6 °F 64% 30.53 in 10.0 mi SSE 5.8 mph - N/A   Clear
11:10 PM 28.4 °F 22.2 °F 19.4 °F 69% 30.52 in 10.0 mi SSE 5.8 mph - N/A   Clear
11:30 PM 28.4 °F 22.2 °F 19.4 °F 69% 30.52 in 10.0 mi SE 5.8 mph - N/A   Clear
11:50 PM 28.4 °F 24.6 °F 17.6 °F 64% 30.51 in 10.0 mi SE 3.5 mph - N/A   Clear